Погода в Сутормине

Россия / Смоленская область     55°43′14″N   34°23′44″E
темп.,
°C
ветер,
м/с
пор.,
м/с
влажн.,
%
обл.,
%
осадки,
мм/ч
давл.,
гПа
погр.,
м
11 апреля, вс
вс1100:00+4ююз513705 0.0 1023300
03:00+3юз497582 0.0 1024193
06:00+2ююз338332 0.0 102646
09:00+7юз35679 0.0 1027324
12:00+12ююз46535 0.0 1027846
15:00+15ююз56465 0.0 10281514
18:00+14ююз34545 0.0 1028143
21:00+9ю34685 0.0 103043
12 апреля, пн
пн1200:00+7ююв34742 0.0 103246
03:00+6ююв34770 0.0 103249
06:00+5юв34810 0.0 103361
09:00+9юв48630 0.0 1032373
12:00+13вюв684455 0.0 10301057
15:00+15вюв6838100 0.0 10281230
18:00+12юв5960100 0.0 1026812
21:00+10юв41181100 0.0 1026452
13 апреля, вт
вт1300:00+8юв3993100 0.0 1025224
03:00+7юв2395100 0.0 102549
06:00+7вюв2294100 0.0 102420
09:00+11юв348099 0.0 1023238
12:00+16ююв3461100 0.0 1022656
15:00+18ю4653100 0.0 10211064
18:00+16ююв4764100 0.0 1021263
21:00+13ююв3877100 0.0 1021142
14 апреля, ср
ср1400:00+11ююв358395 0.0 102183
03:00+10юв3107998 0.0 1020171
06:00+9юв377989 0.0 1019132
09:00+13ююв51266100 0.0 1019427
12:00+17ю61154100 0.0 10191063
15:00+18ю594999 0.1 10182077
18:00+14юз2472100 0.1 1018129
21:00+13зюз0076100 0.4 101810
15 апреля, чт
чт1500:00+11всв228399 0.1 101822
03:00+10св3489100 0.1 101773
06:00+8ссв4896100 0.0 1018273
09:00+9ссв5686100 0.0 1019467
12:00+11ссв567497 0.0 1018675
15:00+12ссв7768100 0.0 1018924
18:00+8ссв7117989 0.0 1020580
21:00+5св7148498 0.0 1022608